カタログに戻る

YAOGAN 14

運用中軍事SSO
NORAD 38257·PAYLOAD·🇨🇳 China

打ち上げ May 10, 2012 から Taiyuan Satellite Launch Center

Loading…

次のパス (今後24時間)

TLE

最新Source: Space-Track

元期: Sep 14, 2026, 14:14 UTC

1 38257U 12021A   26257.59325095  .00005080  00000-0  18396-3 0  9994
2 38257  97.3156  33.1945 0003945 211.0366 149.0642 15.28827242799476

AllMySatでYAOGAN 14をリアルタイム追跡

Download on the App Store